Regional Weather Roundup
Issued by NWS

Home | Current Version | Previous Version | Text Only | Print | Product List | Glossary On
Versions: 1 2 3 4 5 6 7 8 9 10 11 12 13 14 15 16 17 18 19 20 21 22 23 24 25 26 27
000
ASUS45 KBOU 230806
RWRCO

WEATHER ROUNDUP FOR COLORADO
NATIONAL WEATHER SERVICE DENVER/BOULDER CO
200 AM MDT WED APR 23 2014

NOTE: "FAIR" INDICATES FEW OR NO CLOUDS BELOW 12000 FEET WITH NO
SIGNIFICANT WEATHER AND/OR OBSTRUCTIONS TO VISIBILITY.

COZ001>005-013-030-031-230900-
...NORTHWEST COLORADO...

CITY           SKY/WX    TMP DP  RH WIND       PRES   REMARKS
CRAIG          LGT RAIN  50  39  66 S14       29.71F
HAYDEN         CLOUDY    48  36  61 W14G21    29.73S
MEEKER         CLOUDY    53  33  46 W22G28    29.73R
MOUNT WERNER   CLOUDY    41  25  52 SW18G36   29.88F
STEAMBOAT SPGS CLOUDY    52  28  39 SW20G26   29.73R
WALDEN         MOCLDY    43  28  56 S10       29.74S
$$

COZ006>008-011-230900-
...WEST CENTRAL VALLEYS...

CITY           SKY/WX    TMP DP  RH WIND       PRES   REMARKS
GRAND JUNCTION CLOUDY    65  24  21 SW14      29.63R
MONTROSE       CLOUDY    64  25  22 S17G30    29.74S
EAGLE          MOCLDY    48  37  66 E3        29.73F
RIFLE          CLOUDY    66  22  18 SW21G30   29.65S
DELTA          NOT AVBL
NUCLA          NOT AVBL
$$

COZ017>023-064>068-230900-
...SOUTHWEST COLORADO...

CITY           SKY/WX    TMP DP  RH WIND       PRES   REMARKS
DURANGO        CLOUDY    54  21  27 W6        29.87F
CORTEZ         CLEAR     59  28  30 S15       29.82F
PAGOSA SPRINGS CLOUDY    57  18  22 SW12G21   29.91F
TELLURIDE      CLOUDY    48  21  34 S18G35    29.93S
WOLF CREEK PAS CLOUDY    32  21  64 SW26G46   30.05F WCI  18
$$

COZ009-010-012-014-032>034-037-058>063-230900-
...CENTRAL COLORADO...

CITY           SKY/WX    TMP DP  RH WIND       PRES   REMARKS
ASPEN          MOCLDY    53  20  27 S9        29.77F
BUENA VISTA    MOCLDY    51  29  43 SE18G24   29.82F
COPPER MTN     PTCLDY    37  27  65 S25       29.97F
BERTHOUD PASS  FAIR      30  21  69 SW32G45   29.95F WCI  15
COTTONWOOD PAS MOCLDY    48  21  34 SW25G38   29.90F
GUNNISON       CLOUDY    43  30  61 N10       29.87F
KREMMLING      PTCLDY    54  23  30 SW18G26   29.72F
LEADVILLE      MOCLDY    41  25  53 S10       29.87F
MONARCH PASS   CLOUDY    34  23  64 SW43G59   30.09F WCI  18
SALIDA         MOCLDY    57  27  32 S15       29.90F
SUNLIGHT       CLOUDY    39  28  65 S5        29.88F
WILKERSON PASS PTCLDY    36  27  69 SE7G21    29.97F
$$

COZ069>075-230900-
...SAN LUIS VALLEY/SANGRE DE CRISTO MOUNTAINS...

CITY           SKY/WX    TMP DP  RH WIND       PRES   REMARKS
ALAMOSA        PTCLDY    45  29  53 E6        29.89F
LA VETA PASS   CLOUDY    43  30  61 SW16G36   29.95F
SAGUACHE       MOCLDY    50  30  46 W8        29.90S
$$

COZ035-036-038>040-230900-
...NORTHERN COLORADO FRONT RANGE...

CITY           SKY/WX    TMP DP  RH WIND       PRES   REMARKS
DENVER INTL AP MOCLDY    58  33  39 S21       29.63F
DMNS CITY PARK   N/A     60  31  33 SW9       29.63S
AURORA         MOCLDY    59  32  36 S15       29.65F
FRONT RANGE AP NOT AVBL
ERIE MUNI ARPT PTCLDY    56  35  46 SW6       29.61S
BOULDER MUN AP PTCLDY    54  32  43 CALM      29.61F
CENTENNIAL     PTCLDY    54  32  43 S9        29.67F
BROOMFIELD     PTCLDY    55  34  44 SW10      29.64F
FORT COLLINS   PTCLDY    54  41  62 CALM      29.61F
LONGMONT       NOT AVBL
$$

COZ041-046-047-076>085-087-088-230900-
...PIKES PEAK/PALMER DIVIDE AND SOUTHERN FOOTHILLS...

CITY           SKY/WX    TMP DP  RH WIND       PRES   REMARKS
COLO. SPRINGS  MOCLDY    56  32  40 SE3       29.73F
A. F. ACADEMY  PTCLDY    49  34  57 S8        29.74F
ELLICOTT       NOT AVBL
FALCON         MOCLDY    51  32  46 CALM      29.77F
FORT CARSON    MOCLDY    56  31  39 S5        29.71F
LIMON          CLOUDY    57  39  51 S14       29.68F
MONUMENT HILL  CLOUDY    52  32  46 S14       29.75F
TRINIDAD       PTCLDY    57  39  51 S15       29.79F
$$

COZ042>045-048>051-090-091-230900-
...NORTHEAST COLORADO...

CITY           SKY/WX    TMP DP  RH WIND       PRES   REMARKS
GREELEY ARPT   MOCLDY    48  37  66 N6        29.59F
AKRON          CLOUDY    63  40  42 S21G28    29.59F
BURLINGTON     MOCLDY    58  41  53 S26       29.67F
WRAY           MOCLDY    60  46  59 S23G31    29.61F
STERLING       NOT AVBL
HOLYOKE        NOT AVBL
FORT MORGAN    NOT AVBL
$$

COZ086-089-092>099-230900-
...SOUTHEAST COLORADO...

CITY           SKY/WX    TMP DP  RH WIND       PRES   REMARKS
PUEBLO         CLOUDY    63  37  38 SW18      29.67F
LA JUNTA       CLOUDY    68  40  35 S20G29    29.67F
LAMAR          MOCLDY    65  42  43 S21       29.68R
SPRINGFIELD      N/A     60  38  43 S24G35    29.79S
$$



USA.gov is the U.S. government's official web portal to all federal, state and local government web resources and services.